COSMOS 1018

Satellite information

Favourite Embed

Satellite Type and Status

PAYLOADIN ORBIT

Key statistics

Satellite COSMOS 1018 at a glance.

Uptime

17261

Days in orbit

Revolutions

≈ 12.5

Per day

Orbit

LEO

Low Earth Orbit

Inclination

74.0

Latest

Satellite identification and parameters

Extended collection of information and parameters for COSMOS 1018.

Object identification

Identified? True

Debris? False

Object name: COSMOS 1018

International designator: 1978-056F

Object number (NORAD): 10935

Object ID (CCSDS): 10935

Country: COMMONWEALTH OF INDEPENDENT STATES (CIS)

Current information (Y/N): Y

RCS size: MEDIUM

Orbital parameters

Period: 115.209 minutes

Inclination: 74.031 deg

SMA: 7843.035 km

Apoapsis: 1487.384 km

Periapsis: 1442.416 km

RAAN: 343.383 deg

Eccentricy: 0.00286676

Argument of periapsis: 127.0542 deg

Mean anomaly: 337.7322 deg

Mean motion: 12.49903716 rev/day

Mean motion (dot): -0.00000001 rev/day2

B* drag term: 0.000094599104 1/REarth

Two-line elements (TLE)

Creation date: Sept. 8, 2025, 6:18 p.m.

Reference frame: TEME

Reference center: EARTH

Epoch: Sept. 8, 2025, 3:02 p.m. UTC

TLE line 0: 0 COSMOS 1018

TLE line 1: 1 10935U 78056F 25251.62651475 -.00000001 00000-0 94599-4 0 9997

TLE line 2: 2 10935 74.0310 343.3830 0028668 127.0542 337.7322 12.49903716156146

Live tracking on map

Real-time ground track for satellite COSMOS 1018.

In-orbit conjunctions

There are no conjunctions computed for COSMOS 1018, at the moment. Check back to stay up to date, as we update our databases every day.

Go to all conjunctions

Associated space launch

Military communications satellites

COSMOS 1018 was lifted into orbit during the mission ‘Kosmos-3M | Strela-1M 145-152’, on board a Kosmos-3M space rocket.

The launch took place on June 7, 1978, 10 p.m. from 132/1 (132L).

For more information about the launch, click the button.

Launch to space Kosmos-3M | Strela-1M 145-152
Kosmos-3M | Strela-1M 145-152

Agency: N/A

Status: Launch Successful

Launch date: June 7, 1978, 10 p.m. UTC

Rocket: Kosmos-3M

Launch pad: 132/1 (132L)

Location: Plesetsk Cosmodrome, Russian Federation

...

Latest news about this satellite

There are no fresh news available about this satellite. Check back as we update our databases every day.


Newsletter sign-up

Weekly statistics, charts and insights to help you stay on top of the space industry.